Location: Catania
(37.5000°N, 15.1000°E)
Time: 09:46:32
(UTC+02:00)

ISS - Visible Passes

Search period start: 08 May 2021 00:00
Search period end: 18 May 2021 00:00
Orbit: 418 x 421 km, 51.6° (Epoch: 08 May)

Date Brightness Start Highest point End Pass type
(mag) Time Alt. Az. Time Alt. Az. Time Alt. Az.
08 May -0.4 02:49:24 10° NNW 02:49:24 10° NNW 02:49:41 10° N visible
09 May -0.7 05:15:55 10° NNW 05:17:46 14° NNE 05:19:37 10° NE visible
10 May -0.4 04:29:09 10° N 04:30:05 11° NNE 04:31:01 10° NNE visible
11 May -1.4 05:17:09 10° NNW 05:20:05 26° NNE 05:23:01 10° E visible
12 May -0.8 04:30:01 10° NNW 04:32:30 19° NNE 04:34:58 10° ENE visible
13 May -0.5 03:43:00 10° NNW 03:44:51 14° NNE 03:46:43 10° NE visible
13 May -3.5 05:18:47 10° NW 05:22:10 73° NE 05:25:31 10° SE visible
14 May -0.2 02:56:13 10° N 02:57:09 11° NNE 02:58:06 10° NNE visible
14 May -2.4 04:31:27 10° NW 04:34:41 42° NE 04:37:55 10° ESE visible
14 May -3.4 21:13:20 10° SSW 21:16:29 39° SE 21:19:40 10° ENE visible
14 May -1.3 22:50:37 10° W 22:53:23 23° NNW 22:55:40 13° NNE visible
15 May -1.5 03:44:13 10° NNW 03:47:10 27° NNE 03:50:05 10° E visible
15 May -3.0 05:20:55 10° WNW 05:23:58 32° SW 05:27:00 10° SSE visible
15 May -2.1 22:02:43 10° WSW 22:05:50 35° NNW 22:08:58 10° NE visible
15 May -0.1 23:43:18 10° NNW 23:43:27 10° NNW 23:43:35 10° NNW visible
16 May -0.9 02:57:04 10° NNW 02:59:34 19° NNE 03:02:03 10° ENE visible
16 May -3.8 04:33:17 10° WNW 04:36:38 60° SW 04:39:56 10° SE visible
16 May -3.2 21:15:01 10° WSW 21:18:20 59° NW 21:21:41 10° NE visible
16 May -0.3 22:54:10 10° NW 22:55:43 13° NNW 22:57:18 10° N visible
17 May -0.5 02:10:02 10° NNW 02:11:54 14° NNE 02:13:47 10° NE visible
17 May -3.6 03:45:50 10° NW 03:49:12 74° NE 03:52:34 10° SE visible
17 May -3.8 20:27:34 10° SW 20:30:54 76° SE 20:34:16 10° NE visible
17 May -0.6 22:05:48 10° WNW 22:08:03 17° NNW 22:10:19 10° NNE visible
